Miscellaneous Local Product
Issued by NWS North Platte, NE

Home | Current Version | Previous Version | Text Only | Print | Product List | Glossary On
Versions: 1 2 3 4 5 6 7 8 9 10 11 12 13 14 15 16 17 18 19 20 21 22 23 24 25 26 27 28 29 30 31 32 33 34 35 36 37 38 39 40 41 42 43 44 45 46 47 48 49 50
000
AXUS43 KLBF 241510
MISLBF


WESTERN AND NORTH CENTRAL NEBRASKA HOURLY WEATHER ROUNDUP
NATIONAL WEATHER SERVICE NORTH PLATTE NE
1000 AM CDT WED AUG 24 2016

NOTE: "FAIR" INDICATES FEW OR NO CLOUDS BELOW 12,000 FEET WITH NO
SIGNIFICANT WEATHER AND/OR OBSTRUCTIONS TO VISIBILITY.

NOTE: STATIONS NOT REPORTING VARIABLES SUCH AS SKY/WEATHER OR
PRESSURE ARE PROVIDED BY RAWS AND APRS NETWORKS AND ARE NOT UNDER
NATIONAL WEATHER SERVICE QUALITY CONTROL.

...OBSERVATIONS IN AND NEAR THE EASTERN PANHANDLE OF NEBRASKA...

CITY           SKY/WX    TMP DP  RH WIND       PRES   REMARKS
PINE RIDGE     CLOUDY    56  48  74 CALM      30.21R
CHADRON        CLOUDY    61  38  42 E3        30.21R
ALLIANCE       CLOUDY    57  47  69 N10       30.22R
SIDNEY         CLOUDY    64  41  42 E8        30.23R
CRESCENT LAKE    N/A     60  45  57 NW6         N/A
$$

...OBSERVATIONS IN NORTHERN NEBRASKA AND FAR SOUTHERN SOUTH DAKOTA...

CITY           SKY/WX    TMP DP  RH WIND       PRES   REMARKS
WINNER         FAIR      64  48  56 NW12      30.10R
VALENTINE      CLOUDY    63  42  46 N16G24    30.13R
THEDFORD       PTSUNNY   65  45  49 W8        30.16R
AINSWORTH      CLOUDY    61  45  56 NW9       30.13R
O`NEILL        CLOUDY    64  50  60 NW9       30.08R
ORD            CLOUDY    65  48  54 CALM      30.06R
BROKEN BOW     CLOUDY    62  52  69 NW3       30.11R
VALENTINE NWR    N/A     59  42  52 N10         N/A
BUTTE            N/A     63  49  61 NW9         N/A
HALSEY           N/A     59  42  53 CALM        N/A
EWING            N/A     63  55  75 CALM        N/A
$$

...OBSERVATIONS IN SOUTHWEST NEBRASKA AND FAR NORTHEAST COLORADO...

CITY           SKY/WX    TMP DP  RH WIND       PRES   REMARKS
WRAY           FAIR      66  39  37 W3        30.19R
HOLYOKE        FAIR      66  43  42 N5        30.20R
IMPERIAL       CLOUDY    64  46  52 N10       30.15R
OGALLALA       CLOUDY    69  36  30 N9        30.15F
NORTH PLATTE   CLOUDY    65  48  54 NE7       30.12R
MCCOOK         PTSUNNY   67  46  47 NE15      30.06F
LEXINGTON      CLOUDY    63  53  70 N5        30.08S
STAPLETON        N/A     65  47  51 CALM        N/A
GOTHENBURG       N/A     60  49  67 W3          N/A
CALLAWAY         N/A     60  50  70 CALM        N/A
$$

...OBSERVATIONS IN CENTRAL LINCOLN COUNTY AREA...

CITY           SKY/WX    TMP DP  RH WIND       PRES   REMARKS
N.P. AIRPORT   CLOUDY    65  48  54 NE7       30.12R
N.P. DOWNTOWN    N/A     64  47  54 NE5         N/A
N.P. SOUTHEAST   N/A     64  47  55 CALM        N/A
N.P. HILLCREST   N/A     66  45  47 NE7         N/A
$$

...SOME OBSERVATIONS FROM AROUND THE REGION...

CITY           SKY/WX    TMP DP  RH WIND       PRES   REMARKS
DENVER         CLOUDY    67  41  38 SE9       30.23R
LARAMIE        CLOUDY    58  28  32 N6        30.30S
CHEYENNE       CLOUDY    58  44  60 NE6       30.27R
SCOTTSBLUFF    CLOUDY    61  42  49 E6        30.22R
RAPID CITY     PTSUNNY   63  46  54 N17G24    30.19S
BISMARCK       SUNNY     65  51  60 W15G25    30.01S
PIERRE         PTSUNNY   66  49  54 NW20      30.08S
SIOUX FALLS    CLOUDY    69  58  67 NW7       29.99R
OMAHA          CLOUDY    74  65  73 N12       29.97R
GRAND ISLAND   CLOUDY    69  52  54 N12       30.04F
KANSAS CITY    CLOUDY    76  70  82 SW15G22   29.99R
WICHITA        CLOUDY    77  67  71 SW9       30.00S
OKLAHOMA CITY  MOSUNNY   84  69  60 SW20G28   30.06R
DALLAS         MOSUNNY   82  70  66 SW16      30.12R
AMARILLO       CLOUDY    71  57  61 S9        30.13S
DODGE CITY     CLOUDY    75  61  61 N5        30.03R
HAYS           CLOUDY    72  55  56 N16       30.01S
GOODLAND       CLOUDY    66  48  52 N10       30.15R
$$




USA.gov is the U.S. government's official web portal to all federal, state and local government web resources and services.